#timestamp,LO_Frequency,Hit,StdDev 
1516096815.8,286047001.6,N
1516096835.7,286047002.2,N
1516096855.5,286047011.9,Y
1516096875.4,286046996.8,P
1516096895.2,286046996.5,N
1516096915.0,286046997.2,N
1516096915.9,286046997.2,N
1516096935.8,286046997.6,N
1516096955.6,286046995.1,N
1516096975.4,286046995.1,N
1516096995.3,286046995.3,N
1516097015.1,286046997.0,N
1516097035.9,286046997.9,N
1516097055.7,286046995.0,N
1516097075.5,286046997.9,N
1516097095.4,286046996.2,N
1516097115.2,286046996.0,N
1516097135.0,286046995.6,N
1516097135.9,286046995.6,N
1516097155.8,286046996.3,N
1516097175.6,286046992.4,Y
1516097195.5,286046999.1,P
1516097215.3,286047000.7,N
1516097235.1,286046998.6,N
1516097255.9,286046996.8,N
1516097275.7,286046995.1,Y
1516097295.6,286046997.4,P
1516097315.4,286046997.1,P
1516097335.2,286046996.8,P
1516097355.1,286046994.9,Y
1516097356.0,286046994.9,P
1516097375.8,286046998.0,N
1516097395.6,286046997.9,N
1516097415.5,286046996.8,N
1516097435.3,286046999.4,N
1516097455.2,286046999.1,N
1516097475.9,286046999.5,N
1516097495.7,286046999.2,N
1516097515.6,286046996.7,N
1516097535.4,286046997.6,N
1516097555.2,286046997.0,N
1516097575.1,286046997.3,N
1516097576.0,286046997.3,N
1516097595.8,286046997.5,N
1516097615.7,286046997.5,N
1516097635.5,286046995.7,Y
1516097655.3,286046996.5,P
1516097675.2,286046996.6,P
1516097695.0,286046997.0,P
1516097695.9,286046997.0,Y
1516097715.8,286047000.3,P
1516097735.6,286047000.7,N
1516097755.4,286047001.2,N
1516097775.3,286046999.3,N
1516097795.1,286047000.8,N
1516097815.8,286046999.0,N
1516097835.7,286046997.7,N
1516097855.5,286046995.4,Y
1516097875.4,286046996.9,P
1516097895.2,286046996.5,N
1516097915.0,286046997.1,N
1516097915.9,286046997.1,N
1516097935.8,286046997.2,N
1516097955.6,286046997.9,N
1516097975.5,286046996.1,Y
1516097995.3,286046999.1,P
1516098015.1,286046998.6,N
1516098035.9,286047001.2,N
1516098055.7,286047001.0,N
1516098075.5,286047002.2,N
1516098095.4,286047001.3,N
1516098115.2,286047003.6,N
1516098135.1,286047001.7,N
1516098136.0,286047001.7,N
1516098155.8,286047002.0,N
1516098175.6,286047002.1,N
1516098195.5,286047004.4,N
1516098215.3,286047001.8,N
1516098235.1,286047001.3,N
1516098255.9,286047001.7,N
1516098275.7,286047002.5,N
1516098295.6,286047002.4,N
1516098315.4,286047002.1,N
1516098335.2,286047000.0,N
1516098355.1,286047000.6,N
1516098356.0,286047000.6,N
1516098375.8,286046998.4,N
1516098395.7,286046997.4,N
1516098415.5,286046997.6,N
1516098435.3,286046997.7,N
1516098455.2,286046997.0,N
1516098475.0,286046996.9,N
1516098475.9,286046996.9,N
1516098495.7,286046997.8,N
1516098515.6,286046995.3,N
1516098535.4,286046994.9,N
1516098555.3,286046997.7,N
1516098575.1,286046994.9,N
1516098576.0,286046994.9,N
1516098595.8,286046995.4,N
1516098615.7,286046993.8,N
1516098635.5,286046992.5,N
1516098655.4,286046988.5,Y
1516098675.2,286046988.9,P
1516098695.0,286046989.1,N
1516098695.9,286046989.1,N
1516098715.8,286046989.1,N
1516098735.6,286046988.9,N
1516098755.4,286046991.5,N
1516098775.3,286046991.4,N
1516098795.1,286046991.4,N
1516098815.9,286046992.7,N
1516098835.7,286046991.9,N
1516098855.5,286046992.6,N
1516098875.4,286046991.5,Y
1516098895.2,286046999.5,P
1516098915.0,286046996.5,N
1516098916.0,286046996.5,N
1516098935.8,286046999.1,N
1516098955.6,286046998.6,N
1516098975.5,286047001.2,N
1516098995.3,286046998.6,N
1516099015.1,286047000.8,N
1516099035.9,286046998.4,N
1516099055.7,286047000.7,N
1516099075.6,286046998.8,N
1516099095.4,286046999.5,N
1516099115.2,286046998.3,N
1516099135.1,286047000.6,N
1516099136.0,286047000.6,N
1516099155.8,286047000.9,N
1516099175.6,286047000.7,N
1516099195.5,286047000.1,N
1516099215.3,286047000.9,N
1516099235.2,286046998.6,N
1516099255.9,286046998.7,N
1516099275.7,286046996.5,N
1516099295.6,286046998.7,N
1516099315.4,286047000.7,N
1516099335.2,286047001.2,N
1516099355.1,286047000.8,N
1516099356.0,286047000.8,N
1516099375.8,286047000.5,N
1516099395.7,286047001.1,N
1516099415.5,286047001.2,N
1516099435.3,286047001.2,N
1516099455.2,286047000.9,N
1516099475.0,286047002.3,N
1516099475.9,286047002.3,N
1516099495.7,286047000.3,N
1516099515.6,286047000.2,N
1516099535.4,286046998.2,N
1516099555.3,286046998.9,N
1516099575.1,286046998.0,N
1516099576.0,286046998.0,N
1516099595.8,286046997.1,N
1516099615.7,286046998.9,N
1516099635.5,286046998.4,N
1516099655.3,286046998.9,N
1516099675.2,286046995.4,Y
1516099695.0,286046996.7,P
1516099695.9,286046996.7,N
1516099715.8,286046998.4,N
1516099735.6,286046996.5,N
1516099755.4,286046997.6,N
1516099775.3,286046997.8,N
1516099795.1,286046997.4,N
1516099815.9,286046997.4,N
1516099835.7,286046994.4,Y
1516099855.5,286046993.4,P
1516099875.4,286046995.6,N
1516099895.2,286046994.9,N
1516099915.0,286046995.9,N
1516099915.9,286046995.9,Y
1516099935.8,286047001.2,P
1516099955.6,286047000.7,N
1516099975.5,286046999.9,N
1516099995.3,286046999.9,N
1516100015.1,286047002.6,N
1516100035.9,286047002.1,N
1516100055.7,286047002.0,N
1516100075.5,286047000.7,N
1516100095.4,286047000.6,N
1516100115.2,286047001.2,N
1516100135.1,286046998.1,N
1516100136.0,286046998.1,N
1516100155.8,286046998.2,N
1516100175.6,286046999.0,N
1516100195.5,286046999.4,N
1516100215.3,286046997.1,N
1516100235.2,286046997.7,N
1516100255.9,286046994.9,N
1516100275.7,286046993.4,Y
1516100295.6,286046995.5,P
1516100315.4,286046995.4,N
1516100335.2,286046995.2,N
1516100355.1,286046995.7,N
1516100356.0,286046995.7,N
1516100375.8,286046997.4,N
1516100395.7,286046998.3,N
